Tracking 29781 objects as of 15-Oct-2024
HD Live streaming from Space Station
objects crossing your sky now

DELTA 1 DEB

Track DELTA 1 DEB now!
10-day predictions


NORAD ID: 21466
Int'l Code: 1975-052FA
Perigee: 1,082.6 km
Apogee: 1,287.1 km
Inclination: 99.7 °
Period: 108.9 minutes
Semi major axis: 7555 km
RCS: 0.0199 m2 (small)
Launch date: June 12, 1975
Source: United States (US)
Launch site: AIR FORCE WESTERN TEST RANGE (AFWTR)

Note: This is SATELLITE DEBRIS
Your satellite tracking list
Your tracking list is empty




NASA's NSSDC Master Catalog

Two Line Element Set (TLE):
1 21466U 75052FA  24286.53308949  .00000494  00000-0  12280-2 0  9993
2 21466  99.6607 128.0481 0135367 135.3022 253.4525 13.21837124610996
Source of the keplerian elements: AFSPC